SWA4052 KMDW-KLGA

Flight info

Callsign SWA4052
Flight time 1h 37m
Altitude 33000
Route LEWKE ZIINE Q186 WEVEL ETG MIP4
Aircraft B738/M-SDE2E3FGHIRWXY/LB1

Departure

Time 2026-05-06 01:05
Airport Chicago Midway International Airport (KMDW)

Arrival

Time 2026-05-06 02:42
Airport LaGuardia Airport (KLGA)
Time Latitude Longitude Altitude Speed Heading
2026-05-06 00:36 41.78730 -87.74576 628 ft 0 kts 135°
2026-05-06 00:56 41.78733 -87.74579 628 ft 2 kts 135°
2026-05-06 00:57 41.78744 -87.74594 628 ft 2 kts 135°
2026-05-06 00:57 41.78756 -87.74609 628 ft 2 kts 135°
2026-05-06 00:57 41.78768 -87.74623 628 ft 2 kts 162°
2026-05-06 00:57 41.78779 -87.74623 628 ft 1 kts 206°
2026-05-06 00:58 41.78781 -87.74621 628 ft 0 kts 208°
2026-05-06 01:00 41.78769 -87.74641 628 ft 11 kts 239°
2026-05-06 01:00 41.78738 -87.74733 628 ft 8 kts 243°
2026-05-06 01:01 41.78698 -87.74783 628 ft 13 kts 198°
2026-05-06 01:01 41.78569 -87.74742 628 ft 21 kts 133°
2026-05-06 01:01 41.78495 -87.74630 628 ft 11 kts 133°
2026-05-06 01:01 41.78450 -87.74562 628 ft 13 kts 131°
2026-05-06 01:02 41.78391 -87.74474 628 ft 10 kts 135°
2026-05-06 01:02 41.78317 -87.74386 628 ft 9 kts 152°
2026-05-06 01:02 41.78301 -87.74379 628 ft 0 kts 167°
2026-05-06 01:02 41.78256 -87.74366 628 ft 15 kts 172°
2026-05-06 01:03 41.78171 -87.74360 628 ft 11 kts 181°
2026-05-06 01:03 41.78065 -87.74357 628 ft 13 kts 176°
2026-05-06 01:03 41.78050 -87.74356 628 ft 0 kts 176°
2026-05-06 01:03 41.78027 -87.74354 628 ft 12 kts 176°
2026-05-06 01:04 41.77947 -87.74383 628 ft 7 kts 264°
2026-05-06 01:04 41.77960 -87.74423 628 ft 0 kts 307°
2026-05-06 01:04 41.78012 -87.74499 628 ft 40 kts 314°
2026-05-06 01:05 41.78365 -87.74993 628 ft 106 kts 313°
2026-05-06 01:05 41.78999 -87.75881 667 ft 156 kts 313°
2026-05-06 01:05 41.79924 -87.76677 1298 ft 165 kts 350°
2026-05-06 01:05 41.81035 -87.76204 1729 ft 195 kts 42°
2026-05-06 01:06 41.81739 -87.74520 2053 ft 209 kts 68°
2026-05-06 01:06 41.82226 -87.72624 2414 ft 218 kts 66°
2026-05-06 01:06 41.82763 -87.70752 2999 ft 220 kts 66°
2026-05-06 01:06 41.83337 -87.68755 3301 ft 242 kts 66°
2026-05-06 01:07 41.83964 -87.66552 3610 ft 261 kts 69°
2026-05-06 01:07 41.84239 -87.64171 4517 ft 255 kts 87°
2026-05-06 01:07 41.84008 -87.61847 5445 ft 253 kts 100°
2026-05-06 01:07 41.83666 -87.59504 6105 ft 258 kts 98°
2026-05-06 01:08 41.83342 -87.57119 6828 ft 263 kts 98°
2026-05-06 01:08 41.83001 -87.54632 7322 ft 279 kts 98°
2026-05-06 01:08 41.82641 -87.52027 7967 ft 287 kts 98°
2026-05-06 01:08 41.82271 -87.49366 8680 ft 293 kts 98°
2026-05-06 01:09 41.81923 -87.46693 9392 ft 298 kts 98°
2026-05-06 01:09 41.81555 -87.43911 9969 ft 308 kts 99°
2026-05-06 01:09 41.81165 -87.41036 10539 ft 318 kts 100°
2026-05-06 01:09 41.80748 -87.38039 10887 ft 337 kts 101°
2026-05-06 01:10 41.80297 -87.34846 11161 ft 358 kts 102°
2026-05-06 01:10 41.79818 -87.31487 11422 ft 377 kts 102°
2026-05-06 01:10 41.79312 -87.27954 11835 ft 390 kts 102°
2026-05-06 01:10 41.78795 -87.24350 12436 ft 398 kts 103°
2026-05-06 01:11 41.78274 -87.20727 13123 ft 402 kts 103°
2026-05-06 01:11 41.77742 -87.17031 13789 ft 407 kts 103°
2026-05-06 01:11 41.77204 -87.13287 14461 ft 412 kts 104°
2026-05-06 01:11 41.76661 -87.09497 15145 ft 417 kts 103°
2026-05-06 01:12 41.76251 -87.05609 15799 ft 424 kts 98°
2026-05-06 01:12 41.76127 -87.01619 16441 ft 431 kts 92°
2026-05-06 01:12 41.76184 -86.97590 17080 ft 436 kts 90°
2026-05-06 01:12 41.76289 -86.93502 17679 ft 442 kts 90°
2026-05-06 01:13 41.76368 -86.89355 18266 ft 447 kts 91°
2026-05-06 01:13 41.76429 -86.85179 18833 ft 452 kts 91°
2026-05-06 01:13 41.76482 -86.80942 19407 ft 456 kts 91°
2026-05-06 01:13 41.76529 -86.76718 19939 ft 462 kts 91°
2026-05-06 01:14 41.76682 -86.68027 20978 ft 471 kts 91°
2026-05-06 01:14 41.76746 -86.63616 21455 ft 476 kts 91°
2026-05-06 01:14 41.76791 -86.59148 21954 ft 481 kts 92°
2026-05-06 01:15 41.76830 -86.54655 22406 ft 485 kts 92°
2026-05-06 01:15 41.76864 -86.50111 22844 ft 490 kts 92°
2026-05-06 01:15 41.76897 -86.45520 23267 ft 495 kts 92°
2026-05-06 01:15 41.76929 -86.40880 23684 ft 500 kts 92°
2026-05-06 01:16 41.76962 -86.36244 24099 ft 504 kts 92°
2026-05-06 01:16 41.76995 -86.31474 24500 ft 508 kts 92°
2026-05-06 01:16 41.77036 -86.26782 24914 ft 512 kts 92°
2026-05-06 01:16 41.77088 -86.22006 25320 ft 516 kts 92°
2026-05-06 01:17 41.77136 -86.17173 25695 ft 519 kts 92°
2026-05-06 01:17 41.77181 -86.12321 26088 ft 523 kts 92°
2026-05-06 01:17 41.77221 -86.07433 26450 ft 526 kts 92°
2026-05-06 01:17 41.77261 -86.02521 26828 ft 529 kts 92°
2026-05-06 01:18 41.77298 -85.97562 27205 ft 531 kts 92°
2026-05-06 01:18 41.77334 -85.92650 27548 ft 534 kts 92°
2026-05-06 01:18 41.77369 -85.87659 27885 ft 538 kts 92°
2026-05-06 01:18 41.77411 -85.82631 28217 ft 540 kts 91°
2026-05-06 01:19 41.77485 -85.77568 28604 ft 541 kts 91°
2026-05-06 01:19 41.77537 -85.72517 29069 ft 540 kts 91°
2026-05-06 01:19 41.77578 -85.67550 29528 ft 539 kts 92°
2026-05-06 01:19 41.77620 -85.62524 29965 ft 539 kts 91°
2026-05-06 01:20 41.77683 -85.57505 30326 ft 540 kts 91°
2026-05-06 01:20 41.77716 -85.52459 30662 ft 541 kts 91°
2026-05-06 01:20 41.77736 -85.47407 30979 ft 543 kts 91°
2026-05-06 01:20 41.77751 -85.42335 31301 ft 545 kts 91°
2026-05-06 01:21 41.77764 -85.37249 31628 ft 546 kts 91°
2026-05-06 01:21 41.77775 -85.32159 32016 ft 546 kts 91°
2026-05-06 01:21 41.77784 -85.27061 32323 ft 548 kts 91°
2026-05-06 01:21 41.77800 -85.21951 32628 ft 549 kts 91°
2026-05-06 01:22 41.77800 -85.16836 32824 ft 553 kts 90°
2026-05-06 01:22 41.77807 -85.11656 32859 ft 558 kts 90°
2026-05-06 01:22 41.77820 -85.01168 32869 ft 568 kts 90°
2026-05-06 01:23 41.77819 -84.90544 32867 ft 571 kts 90°
2026-05-06 01:23 41.77881 -84.79971 32864 ft 570 kts 90°
2026-05-06 01:24 41.77896 -84.69400 32862 ft 564 kts 91°
2026-05-06 01:24 41.77861 -84.58878 32861 ft 567 kts 91°
2026-05-06 01:25 41.77816 -84.48314 32862 ft 566 kts 91°
2026-05-06 01:25 41.77780 -84.37802 32865 ft 563 kts 91°
2026-05-06 01:26 41.77705 -84.27304 32868 ft 564 kts 91°
2026-05-06 01:26 41.77633 -84.16818 32869 ft 562 kts 91°
2026-05-06 01:27 41.77542 -84.06396 32870 ft 563 kts 91°
2026-05-06 01:27 41.77466 -83.95932 32869 ft 562 kts 90°
2026-05-06 01:28 41.77450 -83.85425 32865 ft 564 kts 91°
2026-05-06 01:28 41.77340 -83.74932 32860 ft 562 kts 91°
2026-05-06 01:29 41.77215 -83.64452 32859 ft 563 kts 91°
2026-05-06 01:29 41.77031 -83.53997 32860 ft 558 kts 94°
2026-05-06 01:30 41.76141 -83.43682 32864 ft 558 kts 100°
2026-05-06 01:30 41.75010 -83.33402 32862 ft 555 kts 99°
2026-05-06 01:31 41.73982 -83.23230 32861 ft 553 kts 99°
2026-05-06 01:31 41.73045 -83.13016 32859 ft 552 kts 98°
2026-05-06 01:32 41.72035 -83.02818 32855 ft 550 kts 99°
2026-05-06 01:32 41.71006 -82.92686 32852 ft 549 kts 99°
2026-05-06 01:33 41.69975 -82.82575 32850 ft 547 kts 99°
2026-05-06 01:33 41.68954 -82.72573 32852 ft 544 kts 99°
2026-05-06 01:34 41.67924 -82.62568 32855 ft 543 kts 99°
2026-05-06 01:34 41.66871 -82.52570 32856 ft 542 kts 100°
2026-05-06 01:35 41.65799 -82.42609 32859 ft 540 kts 100°
2026-05-06 01:35 41.64722 -82.32683 32862 ft 539 kts 100°
2026-05-06 01:36 41.63646 -82.22842 32864 ft 537 kts 100°
2026-05-06 01:36 41.62567 -82.12945 32862 ft 537 kts 99°
2026-05-06 01:37 41.61717 -82.04736 32860 ft 537 kts 100°
2026-05-06 01:37 41.60648 -81.94871 32858 ft 535 kts 100°
2026-05-06 01:38 41.59562 -81.85046 32856 ft 534 kts 100°
2026-05-06 01:38 41.58506 -81.75218 32858 ft 535 kts 100°
2026-05-06 01:39 41.57390 -81.65381 32860 ft 535 kts 101°
2026-05-06 01:39 41.56256 -81.55532 32866 ft 538 kts 100°
2026-05-06 01:40 41.55116 -81.45665 32876 ft 537 kts 100°
2026-05-06 01:40 41.54035 -81.35805 32876 ft 537 kts 98°
2026-05-06 01:41 41.53165 -81.25969 32869 ft 536 kts 98°
2026-05-06 01:41 41.52255 -81.16092 32864 ft 535 kts 98°
2026-05-06 01:42 41.51324 -81.06245 32861 ft 534 kts 98°
2026-05-06 01:42 41.50384 -80.96408 32858 ft 534 kts 98°
2026-05-06 01:43 41.49502 -80.86588 32856 ft 532 kts 98°
2026-05-06 01:43 41.48585 -80.76794 32854 ft 531 kts 98°
2026-05-06 01:44 41.47647 -80.67026 32852 ft 530 kts 98°
2026-05-06 01:44 41.46704 -80.57331 32851 ft 530 kts 99°
2026-05-06 01:45 41.45787 -80.47585 32851 ft 528 kts 98°
2026-05-06 01:45 41.44824 -80.37886 32852 ft 527 kts 99°
2026-05-06 01:46 41.43837 -80.28192 32852 ft 527 kts 99°
2026-05-06 01:46 41.42855 -80.18583 32855 ft 527 kts 99°
2026-05-06 01:47 41.41869 -80.08905 32857 ft 527 kts 99°
2026-05-06 01:47 41.40932 -79.99226 32859 ft 526 kts 99°
2026-05-06 01:48 41.39984 -79.89601 32860 ft 523 kts 99°
2026-05-06 01:48 41.39025 -79.79984 32860 ft 523 kts 99°
2026-05-06 01:49 41.38062 -79.70391 32859 ft 522 kts 99°
2026-05-06 01:49 41.37077 -79.60222 32858 ft 522 kts 98°
2026-05-06 01:50 41.36144 -79.50626 32856 ft 522 kts 99°
2026-05-06 01:50 41.35188 -79.41108 32853 ft 521 kts 99°
2026-05-06 01:51 41.34213 -79.31531 32850 ft 521 kts 99°
2026-05-06 01:51 41.33265 -79.21960 32848 ft 521 kts 99°
2026-05-06 01:52 41.32272 -79.12397 32846 ft 521 kts 99°
2026-05-06 01:52 41.31264 -79.02916 32845 ft 521 kts 99°
2026-05-06 01:53 41.30247 -78.93391 32843 ft 520 kts 99°
2026-05-06 01:53 41.29235 -78.83873 32843 ft 520 kts 99°
2026-05-06 01:54 41.28215 -78.74360 32844 ft 519 kts 99°
2026-05-06 01:54 41.27153 -78.64867 32846 ft 519 kts 99°
2026-05-06 01:55 41.26083 -78.55391 32849 ft 519 kts 99°
2026-05-06 01:55 41.25012 -78.45904 32850 ft 519 kts 99°
2026-05-06 01:56 41.23987 -78.36427 32853 ft 517 kts 99°
2026-05-06 01:56 41.22928 -78.26966 32853 ft 518 kts 99°
2026-05-06 01:57 41.21868 -78.17569 32854 ft 518 kts 99°
2026-05-06 01:57 41.20752 -78.08123 32854 ft 517 kts 101°
2026-05-06 01:58 41.19552 -77.98685 32855 ft 517 kts 101°
2026-05-06 01:58 41.18358 -77.89303 32850 ft 514 kts 101°
2026-05-06 01:59 41.17168 -77.79999 32848 ft 514 kts 101°
2026-05-06 01:59 41.15965 -77.70645 32846 ft 514 kts 101°
2026-05-06 02:00 41.14813 -77.61260 32845 ft 515 kts 100°
2026-05-06 02:00 41.13638 -77.51907 32843 ft 514 kts 101°
2026-05-06 02:01 41.12438 -77.42555 32839 ft 513 kts 101°
2026-05-06 02:01 41.11226 -77.33209 32665 ft 515 kts 101°
2026-05-06 02:02 41.10616 -77.28536 32077 ft 512 kts 101°
2026-05-06 02:02 41.10007 -77.23879 31246 ft 513 kts 101°
2026-05-06 02:02 41.09403 -77.19271 30431 ft 513 kts 102°
2026-05-06 02:02 41.08788 -77.14604 29647 ft 513 kts 102°
2026-05-06 02:03 41.08176 -77.09973 29045 ft 507 kts 102°
2026-05-06 02:03 41.07589 -77.05376 28454 ft 503 kts 102°
2026-05-06 02:03 41.07001 -77.00831 27866 ft 498 kts 103°
2026-05-06 02:03 41.06403 -76.96344 27280 ft 493 kts 103°
2026-05-06 02:04 41.05802 -76.91895 26694 ft 488 kts 103°
2026-05-06 02:04 41.05204 -76.87495 26111 ft 483 kts 103°
2026-05-06 02:04 41.04607 -76.83118 25526 ft 479 kts 104°
2026-05-06 02:04 41.04017 -76.78804 24949 ft 474 kts 104°
2026-05-06 02:05 41.03432 -76.74521 24374 ft 470 kts 104°
2026-05-06 02:05 41.03049 -76.71720 23996 ft 467 kts 104°
2026-05-06 02:05 41.02232 -76.66116 23234 ft 459 kts 107°
2026-05-06 02:05 41.01418 -76.62103 22673 ft 453 kts 111°
2026-05-06 02:06 41.00480 -76.58155 22150 ft 445 kts 113°
2026-05-06 02:06 40.99525 -76.54389 21869 ft 419 kts 113°
2026-05-06 02:06 40.98616 -76.50743 21459 ft 416 kts 113°
2026-05-06 02:06 40.98025 -76.48344 21158 ft 413 kts 112°
2026-05-06 02:07 40.97141 -76.44731 20699 ft 410 kts 112°
2026-05-06 02:07 40.96269 -76.41157 20240 ft 408 kts 112°
2026-05-06 02:07 40.95401 -76.37592 19782 ft 405 kts 112°
2026-05-06 02:07 40.94261 -76.32918 19175 ft 401 kts 112°
2026-05-06 02:08 40.93409 -76.29419 18719 ft 399 kts 112°
2026-05-06 02:08 40.92837 -76.27066 18411 ft 397 kts 112°
2026-05-06 02:08 40.91993 -76.23604 18067 ft 392 kts 112°
2026-05-06 02:08 40.91159 -76.20185 17642 ft 391 kts 112°
2026-05-06 02:09 40.90335 -76.16822 17306 ft 388 kts 112°
2026-05-06 02:09 40.89519 -76.13429 16976 ft 386 kts 111°
2026-05-06 02:09 40.88717 -76.10057 16638 ft 382 kts 112°
2026-05-06 02:09 40.87908 -76.06724 16302 ft 380 kts 112°
2026-05-06 02:10 40.87090 -76.03388 15961 ft 381 kts 112°
2026-05-06 02:10 40.86268 -76.00055 15617 ft 380 kts 112°
2026-05-06 02:10 40.85448 -75.96745 15276 ft 378 kts 112°
2026-05-06 02:10 40.84630 -75.93445 14934 ft 376 kts 112°
2026-05-06 02:11 40.83817 -75.90167 14593 ft 374 kts 112°
2026-05-06 02:11 40.83009 -75.86911 14255 ft 373 kts 112°
2026-05-06 02:11 40.82207 -75.83696 13924 ft 372 kts 112°
2026-05-06 02:11 40.81403 -75.80458 13590 ft 371 kts 112°
2026-05-06 02:12 40.80601 -75.77231 13256 ft 369 kts 112°
2026-05-06 02:12 40.79805 -75.74028 13036 ft 367 kts 111°
2026-05-06 02:12 40.79012 -75.70821 12863 ft 368 kts 112°
2026-05-06 02:12 40.78211 -75.67610 12724 ft 366 kts 112°
2026-05-06 02:13 40.77414 -75.64416 12592 ft 365 kts 112°
2026-05-06 02:13 40.76617 -75.61230 12462 ft 365 kts 112°
2026-05-06 02:13 40.75584 -75.57163 12298 ft 364 kts 112°
2026-05-06 02:13 40.74803 -75.53992 12174 ft 362 kts 112°
2026-05-06 02:14 40.74023 -75.50868 12047 ft 354 kts 112°
2026-05-06 02:14 40.73515 -75.48844 11965 ft 347 kts 112°
2026-05-06 02:14 40.72764 -75.45856 11847 ft 338 kts 112°
2026-05-06 02:14 40.72080 -75.42929 11732 ft 331 kts 109°
2026-05-06 02:15 40.71517 -75.39998 11621 ft 327 kts 107°
2026-05-06 02:15 40.70809 -75.36166 11486 ft 323 kts 108°
2026-05-06 02:15 40.70437 -75.34225 11419 ft 323 kts 108°
2026-05-06 02:15 40.69870 -75.31343 11316 ft 326 kts 109°
2026-05-06 02:16 40.69294 -75.28452 11209 ft 327 kts 109°
2026-05-06 02:16 40.68722 -75.25601 11104 ft 326 kts 109°
2026-05-06 02:16 40.68141 -75.22710 10986 ft 325 kts 109°
2026-05-06 02:16 40.67563 -75.19838 10880 ft 325 kts 110°
2026-05-06 02:17 40.66945 -75.16985 10770 ft 321 kts 115°
2026-05-06 02:17 40.65972 -75.14368 10667 ft 314 kts 128°
2026-05-06 02:17 40.64692 -75.12067 10561 ft 309 kts 136°
2026-05-06 02:17 40.63254 -75.09988 10451 ft 305 kts 141°
2026-05-06 02:18 40.61774 -75.07992 10347 ft 304 kts 141°
2026-05-06 02:18 40.60323 -75.05967 10246 ft 304 kts 140°
2026-05-06 02:18 40.58884 -75.03933 10145 ft 302 kts 140°
2026-05-06 02:18 40.57522 -75.01835 10040 ft 302 kts 133°
2026-05-06 02:19 40.56440 -74.99470 9960 ft 304 kts 123°
2026-05-06 02:19 40.55597 -74.96959 9843 ft 304 kts 118°
2026-05-06 02:19 40.54846 -74.94352 9726 ft 304 kts 117°
2026-05-06 02:19 40.54105 -74.91754 9610 ft 303 kts 117°
2026-05-06 02:20 40.52577 -74.86586 9393 ft 303 kts 118°
2026-05-06 02:20 40.51806 -74.84009 9283 ft 303 kts 118°
2026-05-06 02:20 40.51037 -74.81442 9170 ft 302 kts 118°
2026-05-06 02:21 40.50268 -74.78879 9063 ft 300 kts 118°
2026-05-06 02:21 40.49510 -74.76359 8957 ft 301 kts 119°
2026-05-06 02:21 40.48744 -74.73799 8844 ft 301 kts 118°
2026-05-06 02:21 40.47981 -74.71245 8734 ft 300 kts 119°
2026-05-06 02:22 40.47215 -74.68694 8625 ft 300 kts 119°
2026-05-06 02:22 40.46450 -74.66156 8518 ft 299 kts 119°
2026-05-06 02:22 40.45678 -74.63611 8409 ft 299 kts 119°
2026-05-06 02:22 40.44913 -74.61085 8300 ft 297 kts 119°
2026-05-06 02:23 40.44147 -74.58560 8195 ft 297 kts 119°
2026-05-06 02:23 40.43450 -74.55997 8084 ft 303 kts 109°
2026-05-06 02:23 40.43324 -74.53200 7974 ft 312 kts 89°
2026-05-06 02:23 40.43736 -74.50396 7860 ft 314 kts 79°
2026-05-06 02:24 40.44383 -74.47653 7744 ft 315 kts 74°
2026-05-06 02:24 40.45153 -74.44958 7628 ft 316 kts 71°
2026-05-06 02:24 40.45936 -74.42301 7511 ft 315 kts 71°
2026-05-06 02:24 40.46698 -74.39617 7399 ft 313 kts 72°
2026-05-06 02:25 40.47435 -74.36936 7287 ft 311 kts 73°
2026-05-06 02:25 40.48159 -74.34260 7181 ft 311 kts 73°
2026-05-06 02:25 40.48882 -74.31572 7065 ft 310 kts 73°
2026-05-06 02:25 40.49595 -74.28908 6951 ft 309 kts 73°
2026-05-06 02:26 40.50307 -74.26234 6838 ft 309 kts 73°
2026-05-06 02:26 40.51015 -74.23569 6725 ft 308 kts 73°
2026-05-06 02:26 40.51720 -74.20908 6612 ft 308 kts 73°
2026-05-06 02:26 40.52423 -74.18252 6498 ft 307 kts 73°
2026-05-06 02:27 40.53116 -74.15647 6385 ft 304 kts 73°
2026-05-06 02:27 40.53812 -74.13021 6280 ft 305 kts 73°
2026-05-06 02:27 40.54510 -74.10391 6171 ft 304 kts 73°
2026-05-06 02:27 40.55324 -74.07826 6050 ft 305 kts 62°
2026-05-06 02:28 40.56640 -74.05651 5952 ft 305 kts 44°
2026-05-06 02:28 40.58273 -74.03853 5654 ft 305 kts 34°
2026-05-06 02:28 40.60035 -74.02328 5403 ft 301 kts 30°
2026-05-06 02:28 40.61810 -74.00900 5157 ft 295 kts 28°
2026-05-06 02:29 40.63549 -73.99524 4995 ft 288 kts 28°
2026-05-06 02:29 40.65212 -73.98132 4864 ft 284 kts 36°
2026-05-06 02:29 40.66659 -73.96380 4751 ft 282 kts 45°
2026-05-06 02:29 40.68026 -73.94509 4645 ft 283 kts 46°
2026-05-06 02:30 40.69385 -73.92651 4536 ft 281 kts 46°
2026-05-06 02:30 40.70744 -73.90810 4431 ft 280 kts 46°
2026-05-06 02:30 40.72108 -73.88968 4326 ft 280 kts 46°
2026-05-06 02:30 40.73475 -73.87133 4227 ft 280 kts 46°
2026-05-06 02:31 40.74832 -73.85308 4116 ft 278 kts 46°
2026-05-06 02:31 40.76191 -73.83492 4014 ft 279 kts 46°
2026-05-06 02:31 40.77561 -73.81663 3916 ft 281 kts 46°
2026-05-06 02:31 40.78929 -73.79842 3819 ft 279 kts 46°
2026-05-06 02:32 40.80293 -73.78022 3726 ft 278 kts 46°
2026-05-06 02:32 40.81633 -73.76240 3637 ft 276 kts 46°
2026-05-06 02:32 40.82993 -73.74442 3543 ft 276 kts 46°
2026-05-06 02:32 40.84349 -73.72650 3440 ft 275 kts 46°
2026-05-06 02:33 40.85705 -73.70866 3340 ft 275 kts 46°
2026-05-06 02:33 40.86618 -73.69661 3273 ft 275 kts 46°
2026-05-06 02:33 40.89807 -73.65587 3060 ft 273 kts 40°
2026-05-06 02:34 40.91311 -73.64076 3005 ft 268 kts 36°
2026-05-06 02:34 40.92808 -73.62638 3000 ft 264 kts 36°
2026-05-06 02:34 40.94285 -73.61216 3031 ft 261 kts 35°
2026-05-06 02:34 40.95882 -73.60163 3012 ft 255 kts
2026-05-06 02:35 40.97562 -73.60367 2981 ft 237 kts 330°
2026-05-06 02:35 40.98709 -73.61708 2995 ft 213 kts 290°
2026-05-06 02:35 40.98905 -73.63511 3029 ft 194 kts 252°
2026-05-06 02:35 40.98381 -73.65120 3054 ft 189 kts 233°
2026-05-06 02:36 40.97654 -73.66561 3047 ft 188 kts 234°
2026-05-06 02:36 40.96939 -73.68006 3041 ft 187 kts 233°
2026-05-06 02:36 40.96220 -73.69449 3027 ft 187 kts 233°
2026-05-06 02:36 40.95502 -73.70890 3015 ft 188 kts 233°
2026-05-06 02:37 40.94782 -73.72334 2999 ft 189 kts 233°
2026-05-06 02:37 40.94060 -73.73778 3002 ft 187 kts 233°
2026-05-06 02:37 40.93176 -73.75013 2997 ft 183 kts 217°
2026-05-06 02:37 40.92119 -73.75906 2974 ft 174 kts 211°
2026-05-06 02:38 40.91122 -73.76687 2835 ft 161 kts 212°
2026-05-06 02:38 40.90207 -73.77425 2636 ft 151 kts 212°
2026-05-06 02:38 40.89338 -73.78136 2439 ft 143 kts 212°
2026-05-06 02:38 40.88523 -73.78808 2268 ft 134 kts 212°
2026-05-06 02:39 40.87742 -73.79454 2096 ft 131 kts 212°
2026-05-06 02:39 40.86975 -73.80089 1926 ft 130 kts 212°
2026-05-06 02:39 40.86218 -73.80716 1763 ft 128 kts 212°
2026-05-06 02:39 40.85476 -73.81330 1595 ft 123 kts 212°
2026-05-06 02:40 40.84765 -73.81920 1433 ft 121 kts 212°
2026-05-06 02:40 40.84041 -73.82519 1248 ft 123 kts 211°
2026-05-06 02:40 40.83285 -73.83146 1114 ft 132 kts 211°
2026-05-06 02:40 40.82515 -73.83783 928 ft 130 kts 210°
2026-05-06 02:41 40.81736 -73.84428 754 ft 134 kts 210°
2026-05-06 02:41 40.80942 -73.85085 569 ft 134 kts 210°
2026-05-06 02:41 40.80175 -73.85719 388 ft 126 kts 210°
2026-05-06 02:41 40.79446 -73.86322 216 ft 124 kts 210°
2026-05-06 02:42 40.78733 -73.86911 84 ft 116 kts 209°
2026-05-06 02:42 40.78090 -73.87457 10 ft 101 kts 203°
2026-05-06 02:42 40.77584 -73.87856 8 ft 49 kts 210°
2026-05-06 02:42 40.77409 -73.87978 8 ft 21 kts 187°
2026-05-06 02:43 40.77306 -73.87983 8 ft 9 kts 164°
2026-05-06 02:43 40.77298 -73.87965 8 ft 4 kts 76°
2026-05-06 02:43 40.77344 -73.87911 8 ft 7 kts 32°
2026-05-06 02:43 40.77357 -73.87900 8 ft 0 kts 32°
2026-05-06 02:44 40.77397 -73.87867 8 ft 18 kts 32°
2026-05-06 02:44 40.77506 -73.87778 8 ft 16 kts 32°
2026-05-06 02:44 40.77607 -73.87690 8 ft 15 kts 39°
2026-05-06 02:44 40.77665 -73.87638 8 ft 5 kts 33°
2026-05-06 02:45 40.77724 -73.87565 8 ft 16 kts 71°
2026-05-06 02:45 40.77756 -73.87418 8 ft 22 kts 67°
2026-05-06 02:45 40.77765 -73.87252 8 ft 14 kts 117°
2026-05-06 02:45 40.77718 -73.87147 8 ft 20 kts 124°
2026-05-06 02:46 40.77642 -73.86997 8 ft 16 kts 123°
2026-05-06 02:46 40.77601 -73.86974 8 ft 2 kts 204°
2026-05-06 02:46 40.77568 -73.86999 8 ft 12 kts 212°
2026-05-06 02:46 40.77509 -73.87047 8 ft 9 kts 211°
2026-05-06 02:47 40.77461 -73.87057 8 ft 2 kts 123°
2026-05-06 02:47 40.77441 -73.87021 8 ft 4 kts 135°
2026-05-06 02:47 40.77437 -73.87015 8 ft 0 kts 131°
2026-05-06 02:47 40.77437 -73.87016 8 ft 1 kts 131°
2026-05-06 02:48 40.77443 -73.87023 8 ft 0 kts 131°
2026-05-06 02:48 40.77439 -73.87019 8 ft 0 kts 134°